LAM0227 FQVL-FQBR

Flight info

Callsign LAM0227
Flight time 0h 29m
Altitude 13000
Route VL W15 VBR
Aircraft B738/M-SDE2E3FGHIRWXY/LB1

Departure

Time 2026-05-07 19:10
Airport Vilankulo Airport (FQVL)

Arrival

Time 2026-05-07 19:39
Airport Beira International Airport (FQBR)
Time Latitude Longitude Altitude Speed Heading
2026-05-07 18:43 -22.01617 35.31473 55 ft 0 kts 154°
2026-05-07 19:06 -22.01642 35.31480 54 ft 7 kts 173°
2026-05-07 19:06 -22.01722 35.31488 54 ft 11 kts 181°
2026-05-07 19:07 -22.01779 35.31471 55 ft 9 kts 176°
2026-05-07 19:07 -22.01856 35.31469 55 ft 12 kts 234°
2026-05-07 19:07 -22.01861 35.31388 56 ft 9 kts 271°
2026-05-07 19:07 -22.01878 35.31326 57 ft 10 kts 204°
2026-05-07 19:08 -22.01954 35.31352 57 ft 12 kts 156°
2026-05-07 19:08 -22.02066 35.31411 56 ft 23 kts 156°
2026-05-07 19:08 -22.02237 35.31488 54 ft 25 kts 157°
2026-05-07 19:08 -22.02323 35.31489 54 ft 9 kts 161°
2026-05-07 19:09 -22.02306 35.31520 54 ft 8 kts 338°
2026-05-07 19:09 -22.02283 35.31509 54 ft 2 kts 336°
2026-05-07 19:09 -22.02135 35.31440 55 ft 63 kts 337°
2026-05-07 19:09 -22.01469 35.31121 61 ft 144 kts 337°
2026-05-07 19:10 -22.00399 35.30611 451 ft 180 kts 337°
2026-05-07 19:10 -21.99266 35.30065 1375 ft 175 kts 335°
2026-05-07 19:10 -21.98157 35.29539 1994 ft 182 kts 336°
2026-05-07 19:10 -21.96916 35.29126 2433 ft 199 kts 347°
2026-05-07 19:11 -21.95518 35.28868 2918 ft 213 kts 349°
2026-05-07 19:11 -21.93993 35.28601 3363 ft 229 kts 349°
2026-05-07 19:11 -21.92342 35.28286 3851 ft 246 kts 348°
2026-05-07 19:11 -21.90640 35.27947 4458 ft 257 kts 348°
2026-05-07 19:12 -21.88820 35.27582 5161 ft 265 kts 348°
2026-05-07 19:12 -21.87013 35.27221 5989 ft 266 kts 348°
2026-05-07 19:12 -21.85172 35.26856 6814 ft 267 kts 348°
2026-05-07 19:12 -21.83296 35.26483 7546 ft 271 kts 347°
2026-05-07 19:13 -21.81422 35.26111 8297 ft 273 kts 347°
2026-05-07 19:13 -21.79504 35.25728 9050 ft 276 kts 346°
2026-05-07 19:13 -21.77530 35.25334 9829 ft 279 kts 346°
2026-05-07 19:13 -21.75537 35.24935 10404 ft 288 kts 346°
2026-05-07 19:14 -21.73335 35.24491 10830 ft 304 kts 346°
2026-05-07 19:14 -21.71041 35.24030 11283 ft 318 kts 346°
2026-05-07 19:14 -21.68735 35.23569 11630 ft 334 kts 347°
2026-05-07 19:14 -21.66338 35.23093 11961 ft 349 kts 347°
2026-05-07 19:15 -21.63651 35.22559 12337 ft 363 kts 347°
2026-05-07 19:15 -21.60974 35.22027 12626 ft 378 kts 347°
2026-05-07 19:15 -21.58326 35.21501 12837 ft 392 kts 347°
2026-05-07 19:15 -21.55611 35.20962 12924 ft 401 kts 347°
2026-05-07 19:16 -21.52852 35.20416 12939 ft 401 kts 347°
2026-05-07 19:16 -21.50112 35.19875 12943 ft 401 kts 347°
2026-05-07 19:16 -21.47323 35.19323 12944 ft 401 kts 347°
2026-05-07 19:16 -21.44614 35.18787 12939 ft 397 kts 347°
2026-05-07 19:17 -21.41894 35.18250 12944 ft 388 kts 347°
2026-05-07 19:17 -21.39249 35.17726 12948 ft 389 kts 347°
2026-05-07 19:17 -21.36563 35.17193 12951 ft 389 kts 347°
2026-05-07 19:17 -21.33896 35.16662 12946 ft 390 kts 347°
2026-05-07 19:18 -21.31219 35.16131 12949 ft 389 kts 347°
2026-05-07 19:18 -21.28369 35.15566 12948 ft 389 kts 347°
2026-05-07 19:18 -21.25674 35.15033 12949 ft 390 kts 347°
2026-05-07 19:18 -21.22984 35.14500 12946 ft 390 kts 347°
2026-05-07 19:19 -21.20307 35.14019 12943 ft 390 kts 350°
2026-05-07 19:19 -21.17606 35.13728 12948 ft 392 kts 353°
2026-05-07 19:19 -21.14844 35.13573 12949 ft 392 kts 355°
2026-05-07 19:19 -21.12071 35.13477 12945 ft 393 kts 356°
2026-05-07 19:20 -21.09324 35.13390 12946 ft 393 kts 356°
2026-05-07 19:20 -21.06574 35.13295 12941 ft 391 kts 356°
2026-05-07 19:20 -21.03837 35.13189 12944 ft 392 kts 355°
2026-05-07 19:20 -21.01046 35.13068 12948 ft 392 kts 355°
2026-05-07 19:21 -20.98323 35.12944 12944 ft 392 kts 355°
2026-05-07 19:21 -20.95593 35.12815 12942 ft 393 kts 355°
2026-05-07 19:21 -20.92855 35.12685 12952 ft 392 kts 355°
2026-05-07 19:21 -20.90095 35.12552 12948 ft 393 kts 355°
2026-05-07 19:22 -20.87287 35.12416 12941 ft 393 kts 355°
2026-05-07 19:22 -20.84430 35.12279 12937 ft 394 kts 355°
2026-05-07 19:22 -20.81690 35.12148 12942 ft 393 kts 355°
2026-05-07 19:22 -20.78906 35.12015 12947 ft 393 kts 355°
2026-05-07 19:23 -20.76173 35.11885 12950 ft 394 kts 355°
2026-05-07 19:23 -20.73444 35.11755 12940 ft 393 kts 355°
2026-05-07 19:23 -20.70719 35.11626 12935 ft 392 kts 355°
2026-05-07 19:23 -20.67978 35.11495 12954 ft 393 kts 355°
2026-05-07 19:24 -20.65220 35.11364 12956 ft 394 kts 355°
2026-05-07 19:24 -20.62509 35.11235 12946 ft 391 kts 355°
2026-05-07 19:24 -20.59821 35.11108 12941 ft 393 kts 355°
2026-05-07 19:24 -20.57084 35.10978 12943 ft 392 kts 355°
2026-05-07 19:25 -20.54388 35.10851 12749 ft 380 kts 355°
2026-05-07 19:25 -20.51744 35.10727 12437 ft 375 kts 355°
2026-05-07 19:25 -20.49130 35.10601 11967 ft 387 kts 355°
2026-05-07 19:25 -20.46381 35.10468 11373 ft 387 kts 355°
2026-05-07 19:26 -20.43692 35.10341 10996 ft 376 kts 355°
2026-05-07 19:26 -20.41206 35.10226 10887 ft 358 kts 355°
2026-05-07 19:26 -20.38734 35.10112 10725 ft 343 kts 355°
2026-05-07 19:26 -20.36378 35.10002 10551 ft 330 kts 355°
2026-05-07 19:27 -20.34046 35.09892 10404 ft 317 kts 355°
2026-05-07 19:27 -20.31856 35.09788 10289 ft 304 kts 355°
2026-05-07 19:27 -20.29683 35.09685 10140 ft 292 kts 354°
2026-05-07 19:27 -20.27673 35.09588 9947 ft 284 kts 354°
2026-05-07 19:28 -20.25712 35.09495 9676 ft 279 kts 355°
2026-05-07 19:28 -20.23754 35.09401 9302 ft 279 kts 355°
2026-05-07 19:28 -20.21816 35.09308 8909 ft 277 kts 355°
2026-05-07 19:28 -20.19874 35.09215 8397 ft 274 kts 355°
2026-05-07 19:29 -20.17982 35.09125 7935 ft 269 kts 356°
2026-05-07 19:29 -20.16140 35.09038 7585 ft 266 kts 356°
2026-05-07 19:29 -20.14292 35.08950 7237 ft 263 kts 356°
2026-05-07 19:29 -20.12451 35.08863 6907 ft 261 kts 356°
2026-05-07 19:30 -20.10662 35.08779 6585 ft 258 kts 357°
2026-05-07 19:30 -20.08875 35.08695 6304 ft 255 kts 357°
2026-05-07 19:30 -20.07099 35.08611 5955 ft 254 kts 357°
2026-05-07 19:30 -20.05349 35.08528 5760 ft 246 kts 357°
2026-05-07 19:31 -20.03666 35.08450 5578 ft 237 kts 357°
2026-05-07 19:31 -20.02049 35.08374 5461 ft 225 kts 356°
2026-05-07 19:31 -20.00517 35.08302 5333 ft 211 kts 357°
2026-05-07 19:31 -19.99552 35.08257 5229 ft 204 kts 357°
2026-05-07 19:32 -19.97715 35.08170 5070 ft 187 kts 357°
2026-05-07 19:32 -19.96419 35.08108 4949 ft 183 kts 357°
2026-05-07 19:32 -19.95120 35.08046 4887 ft 184 kts 357°
2026-05-07 19:32 -19.93825 35.08054 4687 ft 189 kts
2026-05-07 19:33 -19.92575 35.08366 4345 ft 190 kts 17°
2026-05-07 19:33 -19.91283 35.08783 3953 ft 193 kts 16°
2026-05-07 19:33 -19.89992 35.09168 3745 ft 183 kts 15°
2026-05-07 19:33 -19.88784 35.09510 3619 ft 173 kts 14°
2026-05-07 19:34 -19.87615 35.09837 3474 ft 171 kts 14°
2026-05-07 19:34 -19.86439 35.10116 3321 ft 172 kts
2026-05-07 19:34 -19.85285 35.09892 3188 ft 171 kts 329°
2026-05-07 19:34 -19.84422 35.09038 3087 ft 170 kts 306°
2026-05-07 19:35 -19.84048 35.08327 3018 ft 165 kts 292°
2026-05-07 19:35 -19.83657 35.06723 2871 ft 167 kts 284°
2026-05-07 19:35 -19.83376 35.05529 2748 ft 167 kts 286°
2026-05-07 19:35 -19.83074 35.04347 2604 ft 167 kts 285°
2026-05-07 19:36 -19.82765 35.03132 2431 ft 167 kts 285°
2026-05-07 19:36 -19.82465 35.01941 2271 ft 166 kts 285°
2026-05-07 19:36 -19.82163 35.00743 2131 ft 167 kts 285°
2026-05-07 19:36 -19.81862 34.99553 1950 ft 167 kts 284°
2026-05-07 19:37 -19.81557 34.98346 1524 ft 169 kts 284°
2026-05-07 19:37 -19.81260 34.97172 1173 ft 162 kts 284°
2026-05-07 19:37 -19.80966 34.96009 950 ft 159 kts 284°
2026-05-07 19:37 -19.80675 34.94867 733 ft 161 kts 283°
2026-05-07 19:38 -19.80391 34.93717 436 ft 158 kts 285°
2026-05-07 19:38 -19.80097 34.92538 190 ft 155 kts 284°
2026-05-07 19:38 -19.79786 34.91333 42 ft 148 kts 285°
2026-05-07 19:38 -19.79599 34.90581 47 ft 63 kts 285°
2026-05-07 19:39 -19.79487 34.90116 49 ft 60 kts 285°
2026-05-07 19:39 -19.79393 34.89754 48 ft 22 kts 285°
2026-05-07 19:39 -19.79425 34.89668 48 ft 8 kts 183°
2026-05-07 19:39 -19.79473 34.89681 49 ft 5 kts 161°
2026-05-07 19:40 -19.79504 34.89691 50 ft 3 kts 163°
2026-05-07 19:40 -19.79554 34.89706 50 ft 13 kts 165°
2026-05-07 19:40 -19.79645 34.89771 50 ft 16 kts 110°
2026-05-07 19:40 -19.79673 34.89891 50 ft 18 kts 104°
2026-05-07 19:41 -19.79708 34.90029 50 ft 18 kts 104°
2026-05-07 19:41 -19.79713 34.90105 50 ft 6 kts 33°
2026-05-07 19:41 -19.79677 34.90117 50 ft 0 kts 16°